Probability
0 0 0 0 0 0 0 0 0 0 0 0 0 0 0 0 0 0 0 0 0 0 0 0 0 0 0 0 0 0 0 0 0 0 0 0 0 0 0 0 0 0 0
0 0 0 0 0 0 0 0 0 0 0 0 0 0 0 0 0 0 0 0 0 0 0 0 0 0 0 0 0 0 0 0 0 0 0 0 0 0 0 0 0 0 0
0 0 0 0 0 0 0 0 0 0 0 0 0 0 0 0 0 0 0 0 0 0 0 0 0 0 0 0 0 0 0 0 0 0 0 0 0 0 0 0 0 0 0
0 0 0 0 0 0 0 0 0 0 0 0 0 0 0 0 0 0 0 0 0 0 0 0 0 0 0 0 0 0 0 0 0 0 0 0 0 0 0 0 0 0 0
0 0 0 0 0 0 0 0 0 0 0 0 0 0 0 0 0 0 0 0 0 0 0 0 0 0 0 0 0 0 0 0 0 0 0 0 0 0 0 0 0 0 0
0 0 0 0 0 0 0 0 0 0 0 0 0 0 0 0 0 0 0 0 0 0 0 0 0 0 0 0 0 0 0 0 0 0 0 0 0 0 0 0 0 0 0
0 0 0 0 0 0 0 0 0 0 0 0 0 0 0 0 0 0 0 0 0 0 0 0 0 0 0 0 0 0 0 0 0 0 0 0 0 0 0 0 0 0 0
0 0 0 0 0 0 0 0 0 0 0 0 0 0 0 0 0 0 0 0 0 0 0 0 0 0 0 0 0 0 0 0 0 0 0 0 0 0 0 0 0 0 0
0 0 0 0 0 0 0 0 0 0 0 0 0 0 0 0 0 0 0 0 0 0 0 0 0 0 0 0 0 0 0 0 0 0 0 0 0 0 0 0 0 0 0
0 0 0 0 0 0 0 0 0 0 0 0 0 0 0 0 0 0 0 0 0 0 0 0 0 0 0 0 0 0 0 0 0 0 0 0 0 0 0 0 0 0 0
0 0 0 0 0 0 0 0 0 0 0 0 0 0 0 0 0 0 0 0 0 0 0 0 0 0 0 0 0 0 0 0 0 0 0 0 0 0 0 0 0 0 0
0 0 0 0 0 0 0 0 0 0 0 0 0 0 0 0 0 0 0 0 0 0 0 0 0 0 0 0 0 0 0 0 0 0 0 0 0 0 0 0 0 0 0
0 0 0 0 0 0 0 0 0 0 0 0 0 0 0 0 0 0 0 0 0 0 0 0 0 0 0 0 0 0 0 0 0 0 0 0 0 0 0 0 0 0 0
0 0 0 0 0 0 0 0 0 0 0 0 0 0 0 0 0 0 0 0 0 0 0 0 0 0 0 0 0 0 0 0 0 0 0 0 0 0 0 0 0 0 0
0 0 0 0 0 0 0 0 0 0 0 0 0 0 0 0 0 0 0 0 0 0 0 0 0 0 0 0 0 0 0 0 0 0 0 0 0 0 0 0 0 0 0
0 0 0 0 0 0 0 0 0 0 0 0 0 0 0 0 0 0 0 0 0 0 0 0 0 0 0 0 0 0 0 0 0 0 0 0 0 0 0 0 0 0 0
0 0 0 0 0 0 0 0 0 0 0 0 0 0 0 0 0 0 0 0 0 0 0 0 0 0 0 0 0 0 0 0 0 0 0 0 0 0 0 0 0 0 0
0 0 0 0 0 0 0 0 0 0 0 0 0 0 0 0 0 0 0 0 0 0 0 0 0 0 0 0 0 0 0 0 0 0 0 0 0 0 0 0 0 0 0
0 0 0 0 0 0 0 0 0 0 0 0 0 0 0 0 0 0 0 0 0 0 0 0 0 0 0 0 0 0 0 0 0 0 0 0 0 0 0 0 0 0 0
0 0 0 0 0 0 0 0 0 0 0 0 0 0 0 0 0 0 0 0 0 0 0 0 0 0 0 0 0 0 0 0 0 0 0 0 0 0 0 0 0 0 0
0 0 0 0 0 0 0 0 0 0 0 0 0 0 0 0 0 0 0 0 0 0 0 0 0 0 0 0 0 0 0 0 0 0 0 0 0 0 0 0 0 0 0
0 0 0 0 0 0 0 0 0 0 0 0 0 0 0 0 0 0 0 0 0 0 0 0 0 0 0 0 0 0 0 0 0 0 0 0 0 0 0 0 0 0 0
0 0 0 0 0 0 0 0 0 0 0 0 0 0 0 0 0 0 0 0 0 0 0 0 0 0 0 0 0 0 0 0 0 0 0 0 0 0 0 0 0 0 0
0 0 0 0 0 0 0 0 0 0 0 0 0 0 0 0 0 0 0 0 0 0 0 0 0 0 0 0 0 0 0 0 0 0 0 0 0 0 0 0 0 0 0
0 0 0 0 0 0 0 0 0 0 0 0 0 0 0 0 0 0 0 0 0 0 0 0 0 0 0 0 0 0 0 0 0 0 0 0 0 0 0 0 0 0 0
0 0 0 0 0 0 0 0 0 0 0 0 0 0 0 0 0 0 0 0 0 0 0 0 0 0 0 0 0 0 0 0 0 0 0 0 0 0 0 0 0 0 0
Wind_Speed
6 5 4 4 4 4 4 4 4 3 4 4 4 3 3 3 3 3 2 3 3 2 2 2 2 1 1 1 1 1 1 2 4 4 2 2 3 4 4 4 4 5 5
5 4 5 4 4 4 4 4 4 4 4 4 4 3 3 3 3 4 3 3 4 3 3 2 2 1 1 1 1 1 2 2 3 5 4 3 4 4 4 5 5 5 5
4 4 5 4 5 5 4 4 4 4 4 4 4 4 3 3 3 4 4 4 4 4 3 3 3 2 2 2 1 2 2 2 2 3 5 3 3 3 4 5 6 5 6
4 5 5 5 5 5 4 4 4 4 4 4 4 3 3 3 3 3 3 3 3 3 3 3 3 3 3 3 2 2 2 2 2 3 4 4 4 3 3 4 6 5 6
4 5 5 4 4 4 4 3 3 3 4 4 3 3 3 3 3 4 4 3 3 3 2 3 3 3 4 3 3 3 3 2 2 3 4 4 4 4 4 4 6 6 6
4 4 3 4 4 4 4 3 3 3 3 3 4 4 3 2 3 5 4 3 3 3 3 3 3 3 3 5 5 5 5 4 4 4 4 5 6 4 4 4 5 6 6
4 3 3 3 4 4 4 3 3 4 3 3 3 4 4 4 5 5 5 3 3 3 4 3 3 2 3 3 4 5 5 6 6 5 6 6 6 5 4 5 5 6 7
4 3 3 3 3 3 3 3 3 3 3 3 3 3 3 4 5 5 4 3 3 3 3 3 3 3 3 3 3 3 4 4 5 5 6 6 5 4 4 5 6 7 8
4 4 3 4 4 4 4 4 3 3 3 3 3 3 3 3 5 5 4 2 2 3 3 3 4 4 5 4 3 4 5 4 5 7 8 8 9 9 6 4 4 5 7
4 3 3 3 4 4 4 3 2 3 3 2 2 3 3 3 4 5 5 3 3 3 3 3 4 5 6 6 5 4 6 5 3 4 5 7 7 7 8 5 4 5 5
2 2 2 3 3 3 3 2 3 3 2 2 2 1 2 2 4 5 5 3 3 3 3 3 3 6 7 7 6 5 7 5 3 3 4 4 4 4 5 5 4 5 6
3 3 2 2 2 2 3 2 2 3 3 2 2 1 1 1 2 4 5 5 4 3 3 3 3 5 7 7 6 6 7 4 2 3 4 5 4 5 4 5 6 7 8
3 3 2 2 2 2 3 3 2 2 3 2 2 2 2 1 2 3 5 5 6 4 3 4 4 5 5 5 6 6 4 3 3 4 5 5 4 4 4 5 6 6 8
3 2 3 3 2 2 2 2 3 3 3 3 3 2 2 1 1 1 2 3 4 4 3 3 4 5 4 4 3 4 3 3 4 5 5 4 3 3 4 4 4 5 6
3 2 2 2 2 2 2 1 2 2 3 4 3 3 2 3 3 3 2 2 2 2 1 1 1 2 3 3 3 3 3 3 4 4 4 4 4 4 4 3 3 4 5
3 2 2 2 2 2 2 1 1 1 1 1 1 2 2 3 3 4 4 4 3 2 1 2 3 4 4 4 4 4 4 4 4 4 4 4 4 5 5 4 4 5 7
3 3 2 2 2 2 2 2 1 1 0 1 2 2 3 3 3 3 3 3 3 2 2 3 4 4 4 4 4 4 5 4 3 4 5 5 4 5 5 5 5 5 7
2 2 2 2 2 2 2 2 2 1 1 2 2 3 3 3 3 3 2 2 2 2 3 4 4 4 4 4 4 4 4 3 3 4 4 4 4 5 5 6 6 6 7
3 2 2 2 2 2 2 2 2 2 1 1 1 2 2 3 3 2 1 2 3 4 4 4 4 4 4 4 4 4 4 4 4 4 5 5 5 5 6 6 6 7 7
2 3 2 2 2 2 2 2 2 2 2 2 2 2 1 1 2 2 3 3 3 4 4 5 4 4 4 4 4 4 4 5 5 5 5 5 5 5 6 7 6 6 7
2 2 3 2 2 2 2 3 2 2 2 3 3 3 3 2 3 4 4 4 4 5 5 4 4 4 4 4 4 4 5 5 5 5 5 5 5 5 5 6 6 7 7
2 2 3 3 3 2 3 2 3 3 3 3 3 3 4 3 3 3 4 4 4 4 4 4 4 4 4 4 4 5 5 6 5 5 5 5 5 5 5 6 6 6 6
3 3 2 2 2 3 3 2 3 3 3 3 3 2 3 3 4 4 4 4 4 4 3 4 5 5 4 4 4 5 6 6 6 5 6 6 5 5 5 6 7 7 7
3 3 3 3 3 3 3 3 3 3 3 3 3 3 4 4 4 5 4 4 4 4 4 4 5 6 7 6 5 5 5 6 5 5 7 7 7 6 6 6 7 7 7
3 3 3 4 4 3 3 3 3 4 4 4 4 4 4 4 4 4 4 4 4 5 6 5 5 5 7 8 7 6 8 9 8 6 5 6 7 7 7 7 7 7 7
3 3 3 3 4 4 4 4 4 4 4 4 4 4 4 4 5 4 4 4 5 5 5 5 6 7 7 7 8 9 9 9 9 8 6 6 7 7 7 6 8 7 7
Wind_Direction
202 204 205 206 199 190 186 188 184 173 164 170 174 178 178 176 176 177 181 175 183 183 178 180 204 189 194 234 227 230 237 225 252 277 282 292 295 298 303 297 293 290 295
196 196 199 198 187 186 189 187 174 168 166 169 166 172 183 182 173 176 184 185 184 183 181 176 197 192 200 221 222 246 251 244 245 272 288 292 291 292 296 299 302 300 292
186 191 195 192 188 189 187 177 168 170 169 164 162 173 179 180 178 184 186 184 184 187 184 187 194 185 214 218 218 242 261 271 261 267 281 290 292 298 305 301 298 294 295
185 186 192 193 188 185 177 173 173 172 172 171 170 174 176 179 180 183 186 180 181 187 190 192 195 198 209 213 220 233 244 257 261 265 276 288 291 296 302 305 306 303 299
181 187 195 189 179 172 169 172 169 168 174 168 163 166 168 173 183 178 179 180 179 184 194 199 206 207 219 222 226 224 221 232 249 261 274 289 292 309 304 301 299 305 294
182 192 189 178 174 173 169 168 165 170 171 165 171 171 176 185 187 188 184 185 187 192 205 207 209 206 222 237 242 238 228 228 239 252 266 274 283 290 297 301 305 311 303
181 184 179 176 178 175 165 162 175 183 175 174 176 175 184 189 186 190 196 192 197 204 210 212 222 218 213 228 246 251 249 249 244 243 254 263 275 279 290 294 292 290 285
177 183 177 171 173 164 160 172 187 185 179 182 184 186 189 197 190 190 193 192 203 217 217 212 216 221 222 225 235 252 257 256 257 251 252 263 269 274 266 274 282 287 285
185 188 180 172 171 170 180 187 188 176 177 185 186 187 194 205 196 191 186 185 209 231 232 223 220 224 230 228 228 248 262 265 266 262 268 274 281 286 289 292 292 296 292
195 187 170 167 173 181 187 184 175 170 177 175 188 194 197 208 202 196 190 194 212 228 235 231 227 234 236 228 227 237 254 263 265 278 274 277 278 279 280 267 265 275 287
160 147 150 161 171 173 170 168 160 161 158 171 185 204 208 213 214 206 200 200 212 221 231 235 237 240 244 244 242 242 256 273 271 267 272 275 275 271 268 264 258 256 263
133 142 153 157 156 152 154 158 155 157 161 175 179 212 239 226 226 226 218 219 223 223 234 239 241 246 248 251 251 258 268 276 268 264 268 271 273 274 275 273 268 263 259
133 145 145 138 140 149 157 160 160 163 167 181 185 211 245 253 248 239 233 233 237 239 244 249 258 260 258 254 256 263 262 248 251 256 262 267 270 277 282 282 277 271 268
142 147 144 145 143 141 154 164 169 177 180 187 199 215 233 252 260 252 235 233 237 240 246 253 263 267 265 265 265 259 248 243 244 253 265 274 280 279 277 281 287 294 288
140 141 141 146 153 150 152 168 183 195 193 192 203 201 204 235 251 253 243 231 229 230 240 239 262 266 259 257 256 248 243 242 246 253 262 272 277 280 281 283 276 280 275
148 153 157 158 157 153 148 102 67 150 132 167 193 209 245 259 272 254 252 254 254 234 197 226 245 247 250 253 254 255 247 245 247 252 256 260 268 275 283 282 273 269 275
166 168 167 169 171 172 167 169 185 1 32 222 224 241 261 267 270 266 260 254 248 212 212 239 248 251 252 254 252 252 253 249 243 244 251 254 260 266 271 274 273 272 273
167 169 173 180 181 182 182 185 186 193 241 282 271 259 278 277 277 283 270 246 249 231 236 245 252 255 256 256 256 257 260 259 249 247 249 250 250 257 265 268 267 268 275
174 180 181 176 174 173 174 177 185 199 218 255 304 293 281 278 272 278 247 219 239 248 248 251 252 255 258 258 259 259 259 260 259 254 253 250 247 249 258 263 268 270 269
185 183 175 172 170 170 174 181 193 205 218 231 244 256 269 255 253 256 237 238 245 252 253 255 256 256 258 259 261 261 262 260 258 255 255 253 250 249 256 261 263 267 267
184 183 176 174 186 187 186 194 201 208 222 237 247 247 247 240 245 249 248 246 247 251 257 260 262 262 258 258 257 257 259 262 260 258 258 257 255 256 258 262 266 265 269
181 185 188 193 197 197 198 201 204 213 225 238 261 261 250 253 258 260 258 257 254 252 254 258 261 259 255 252 253 256 259 262 262 260 261 260 256 257 260 262 264 268 272
182 186 194 200 201 201 203 207 211 221 232 239 246 252 248 249 255 258 262 266 268 268 266 262 265 268 267 259 252 249 254 258 256 254 257 261 259 255 255 259 263 268 269
191 195 201 204 204 207 211 218 222 229 236 241 242 244 246 248 253 257 260 266 268 268 266 263 262 266 270 271 264 256 255 259 255 250 248 254 258 257 257 259 261 262 267
201 203 206 208 208 211 215 221 226 230 235 240 243 248 253 255 258 261 263 266 269 270 269 268 267 265 266 267 269 269 269 269 265 257 250 249 252 253 254 257 259 262 262
210 212 216 214 213 212 215 222 228 232 237 241 243 246 250 254 257 261 262 263 266 268 269 267 266 268 271 272 273 276 277 276 269 258 247 248 249 252 252 257 259 258 260